Palma de Mallorca, Spain

9:25 AM CEST on March 29, 2017 (GMT +0200)
Palma De Mallorca

Weather History for LEPA - January, 2014

Change the Weather History Date:

Tuesday, January 21, 2014

  Actual Average Record
Temperature  
Mean Temperature 50 °F -  
Max Temperature 59 °F 57 °F 68 °F (1997)
Min Temperature 42 °F 39 °F 28 °F (2000)
Degree Days  
Heating Degree Days 14    
Moisture  
Dew Point 39 °F    
Average Humidity 60    
Maximum Humidity 93    
Minimum Humidity 34    
Precipitation  
Precipitation 0.00 in 0.05 in - ()
Sea Level Pressure  
Sea Level Pressure 29.98 in    
Wind  
Wind Speed 9 mph ()    
Max Wind Speed 18 mph    
Max Gust Speed 26 mph    
Visibility 7.1 miles    
Events      
Averages and records for this station are not official NWS values.
T = Trace of Precipitation, MM = Missing Value Source: Averaged Metar Reports

Daily Weather History Graph

Daily Weather History Graph

Search for Another Location

Airport or City:

Trip Planner

Search our weather history database for the weather conditions in past years. The results will help you decide how hot, cold, wet, or windy it might be!

Date:

Astronomy

Jan. 21, 2014 Rise Set
Actual Time 8:05 AM CET 5:56 PM CET
Civil Twilight 7:35 AM CET 6:25 PM CET
Nautical Twilight 7:03 AM CET 6:58 PM CET
Astronomical Twilight 6:31 AM CET 7:30 PM CET
Moon 11:12 PM CET (1/21) 10:28 AM CET (1/21)
Length of Visible Light 10h 49m
Length of Day
9h 50m
Waning Gibbous, 77% of the Moon is Illuminated
Jan 21
Waning Gibbous
Jan 24
Last Quarter
Jan 30
New
Feb 6
First Quarter
Feb 15
Full

Hourly Weather History & Observations

Time (CET) Temp. Windchill Dew Point Humidity Pressure Visibility Wind Dir Wind Speed Gust Speed Precip Events Conditions
12:00 AM 52 °F - 36 °F 43% 29.93 in - WNW 10.4 mph - -  
12:00 AM 51.8 °F - 37.4 °F 58% 29.92 in 6.2 mi West 10.4 mph - N/A   Partly Cloudy
12:30 AM 51.8 °F - 37.4 °F 58% 29.92 in 6.2 mi NW 6.9 mph - N/A   Partly Cloudy
1:00 AM 51.8 °F - 37.4 °F 58% 29.92 in 6.2 mi NW 8.1 mph - N/A   Partly Cloudy
1:30 AM 51.8 °F - 39.2 °F 62% 29.92 in 6.2 mi WNW 5.8 mph - N/A   Partly Cloudy
2:00 AM 51 °F - 38 °F 51% 29.92 in - NW 17.3 mph - -  
2:00 AM 51.8 °F - 39.2 °F 62% 29.92 in 6.2 mi NW 10.4 mph - N/A   Partly Cloudy
2:30 AM 50.0 °F - 39.2 °F 66% 29.92 in 6.2 mi NW 18.4 mph - N/A   Partly Cloudy
3:00 AM 51 °F - 37 °F 48% 29.95 in - WNW 8.1 mph - -  
3:00 AM 50.0 °F - 37.4 °F 62% 29.95 in 6.2 mi WNW 15.0 mph 26.5 mph N/A   Partly Cloudy
3:30 AM 50.0 °F - 37.4 °F 62% 29.95 in 6.2 mi WNW 6.9 mph - N/A   Partly Cloudy
4:00 AM 51 °F - 38 °F 49% 29.95 in 9 mi WNW 10.4 mph - -   Scattered Clouds
4:00 AM 50.0 °F - 37.4 °F 62% 29.95 in 6.2 mi SW 2.3 mph - N/A   Partly Cloudy
4:30 AM 50.0 °F - 39.2 °F 66% 29.95 in 6.2 mi WNW 10.4 mph - N/A   Partly Cloudy
5:00 AM 50 °F - 38 °F 54% 29.96 in - NW 10.4 mph - -  
5:00 AM 50.0 °F - 39.2 °F 66% 29.95 in 6.2 mi NW 11.5 mph - N/A   Partly Cloudy
5:30 AM 50.0 °F - 39.2 °F 66% 29.95 in 6.2 mi WNW 5.8 mph - N/A   Partly Cloudy
6:00 AM 50 °F - 39 °F 55% 29.98 in - West 2.3 mph - -  
6:00 AM 50.0 °F - 39.2 °F 66% 29.98 in 6.2 mi WNW 10.4 mph - N/A   Partly Cloudy
6:30 AM 51.8 °F - 37.4 °F 58% 29.98 in 6.2 mi WNW 8.1 mph - N/A   Partly Cloudy
7:00 AM 51 °F - 39 °F 53% 29.99 in 9 mi NNW 2.3 mph - -   Scattered Clouds
7:00 AM 50.0 °F - 39.2 °F 66% 29.98 in 6.2 mi NNW 3.5 mph - N/A   Partly Cloudy
8:00 AM 51 °F - 38 °F 52% 30.01 in - NW 4.6 mph - -  
8:00 AM 51.8 °F - 39.2 °F 62% 30.01 in 6.2 mi NNW 10.4 mph - N/A   Scattered Clouds
8:30 AM 51.8 °F - 37.4 °F 58% 29.98 in 6.2 mi NW 12.7 mph - N/A   Scattered Clouds
9:00 AM 52 °F - 37 °F 45% 30.00 in - NW 11.5 mph - -  
9:00 AM 51.8 °F - 37.4 °F 58% 29.98 in 6.2 mi NNW 13.8 mph - N/A   Scattered Clouds
9:30 AM 53.6 °F - 37.4 °F 54% 30.01 in 6.2 mi NW 16.1 mph - N/A   Scattered Clouds
10:00 AM 55 °F - 38 °F 40% 30.01 in 12 mi NW 15.0 mph - -   Partly Cloudy
10:00 AM 53.6 °F - 37.4 °F 54% 30.01 in 6.2 mi NNW 16.1 mph - N/A   Scattered Clouds
10:30 AM 53.6 °F - 39.2 °F 58% 30.01 in 6.2 mi NW 12.7 mph - N/A   Scattered Clouds
11:00 AM 56 °F - 37 °F 38% 30.02 in - NW 11.5 mph - -  
11:00 AM 55.4 °F - 37.4 °F 51% 30.01 in 6.2 mi NW 10.4 mph - N/A   Scattered Clouds
11:30 AM 55.4 °F - 37.4 °F 51% 30.01 in 6.2 mi NW 12.7 mph - N/A   Scattered Clouds
12:00 PM 58 °F - 37 °F 34% 30.02 in - WNW 11.5 mph - -  
12:00 PM 55.4 °F - 35.6 °F 47% 30.01 in 6.2 mi WNW 12.7 mph - N/A   Scattered Clouds
12:30 PM 57.2 °F - 39.2 °F 51% 30.01 in 6.2 mi WNW 13.8 mph - N/A   Scattered Clouds
1:00 PM 56 °F - 37 °F 37% 30.01 in 16 mi NW 10.4 mph - -   Mostly Cloudy
1:00 PM 55.4 °F - 37.4 °F 51% 30.01 in 6.2 mi NW 16.1 mph - N/A   Mostly Cloudy
1:30 PM 59.0 °F - 39.2 °F 48% 29.98 in 6.2 mi West 17.3 mph - N/A   Scattered Clouds
2:00 PM 59 °F - 39 °F 36% 29.99 in - West 13.8 mph - -  
2:00 PM 57.2 °F - 41.0 °F 55% 29.98 in 6.2 mi West 17.3 mph - N/A   Scattered Clouds
2:30 PM 57.2 °F - 39.2 °F 51% 29.98 in 6.2 mi West 15.0 mph - N/A   Scattered Clouds
3:00 PM 57.2 °F - 37.4 °F 48% 29.98 in 6.2 mi West 16.1 mph - N/A   Scattered Clouds
3:30 PM 57.2 °F - 37.4 °F 48% 29.98 in 6.2 mi WNW 11.5 mph - N/A   Partly Cloudy
4:00 PM 56 °F - 36 °F 36% 29.99 in 16 mi West 10.4 mph - -   Scattered Clouds
4:00 PM 55.4 °F - 37.4 °F 51% 29.98 in 6.2 mi West 9.2 mph - N/A   Partly Cloudy
4:30 PM 55.4 °F - 39.2 °F 54% 29.98 in 6.2 mi WNW 6.9 mph - N/A   Partly Cloudy
5:00 PM 56 °F - 38 °F 39% 29.98 in - West 9.2 mph - -  
5:00 PM 55.4 °F - 41.0 °F 58% 29.98 in 6.2 mi West 9.2 mph - N/A   Partly Cloudy
5:30 PM 53.6 °F - 39.2 °F 58% 29.98 in 6.2 mi West 4.6 mph - N/A   Partly Cloudy
6:00 PM 53 °F - 40 °F 51% 29.99 in - West 8.1 mph - -  
6:00 PM 51.8 °F - 41.0 °F 67% 29.98 in 6.2 mi West 6.9 mph - N/A   Partly Cloudy
6:30 PM 51.8 °F - 42.8 °F 71% 29.98 in 6.2 mi West 6.9 mph - N/A   Partly Cloudy
7:00 PM 51 °F - 42 °F 61% 30.00 in 16 mi West 4.6 mph - -   Scattered Clouds
7:00 PM 50.0 °F - 42.8 °F 76% 29.98 in 6.2 mi West 4.6 mph - N/A   Partly Cloudy
7:30 PM 50.0 °F - 41.0 °F 71% 29.98 in 6.2 mi West 4.6 mph - N/A   Partly Cloudy
8:00 PM 49 °F - 41 °F 64% 30.01 in - West 3.5 mph - -  
8:00 PM 46.4 °F 45.2 °F 41.0 °F 81% 29.98 in 6.2 mi West 3.5 mph - N/A   Partly Cloudy
8:30 PM 46.4 °F - 39.2 °F 76% 30.01 in 6.2 mi Variable 2.3 mph - N/A   Partly Cloudy
9:00 PM 43 °F - 40 °F 83% 30.00 in - ENE 2.3 mph - -  
9:00 PM 42.8 °F - 39.2 °F 87% 29.98 in 6.2 mi ENE 2.3 mph - N/A   Partly Cloudy
9:30 PM 42.8 °F - 39.2 °F 87% 29.98 in 6.2 mi Calm Calm - N/A   Partly Cloudy
10:00 PM 42 °F - 40 °F 88% 29.99 in 12 mi East 2.3 mph - -   Scattered Clouds
10:00 PM 42.8 °F - 39.2 °F 87% 29.98 in 6.2 mi Variable 1.2 mph - N/A   Scattered Clouds
10:30 PM 42.8 °F - 41.0 °F 93% 29.98 in 6.2 mi Calm Calm - N/A   Partly Cloudy
11:00 PM 42 °F - 40 °F 88% 29.98 in - Calm Calm - -  
11:00 PM 42.8 °F - 41.0 °F 93% 29.98 in 6.2 mi Calm Calm - N/A   Partly Cloudy
11:30 PM 42.8 °F - 39.2 °F 87% 29.95 in 6.2 mi Variable 1.2 mph - N/A   Partly Cloudy